| time (UTC) | temp C | wind direction | speed KPH | gust KPH | rain 1hr cm | rain 24hr cm | rain mn cm | humidity % | barometer mb |
| 20260508085021 | 13 | 86 | 1.6 | 8.0 | 0.00 | 0.00 | 0.00 | 22 | 1016.9 |
| 20260508084029 | 13 | 87 | 1.6 | 8.0 | 0.00 | 0.00 | 0.00 | 22 | 1016.9 |
| 20260508083020 | 13 | 102 | 0.0 | 4.8 | 0.00 | 0.00 | 0.00 | 22 | 1017.0 |
| 20260508082050 | 13 | 105 | 0.0 | 4.8 | 0.00 | 0.00 | 0.00 | 22 | 1016.9 |
| 20260508081022 | 13 | 87 | 1.6 | 4.8 | 0.00 | 0.00 | 0.00 | 21 | 1016.9 |
| 20260508080029 | 13 | 100 | 0.0 | 4.8 | 0.00 | 0.00 | 0.00 | 21 | 1016.9 |
| 20260508075041 | 13 | 87 | 0.0 | 4.8 | 0.00 | 0.00 | 0.00 | 22 | 1017.1 |
| 20260508074030 | 13 | 106 | 0.0 | 4.8 | 0.00 | 0.00 | 0.00 | 21 | 1017.3 |
| 20260508073021 | 13 | 100 | 0.0 | 4.8 | 0.00 | 0.00 | 0.00 | 22 | 1017.3 |
| 20260508072030 | 13 | 61 | 1.6 | 8.0 | 0.00 | 0.00 | 0.00 | 22 | 1017.4 |
| 20260508071020 | 13 | 100 | 4.8 | 12.9 | 0.00 | 0.00 | 0.00 | 22 | 1017.4 |
| 20260508070029 | 13 | 99 | 8.0 | 16.1 | 0.00 | 0.00 | 0.00 | 23 | 1017.4 |
| 20260508065022 | 13 | 87 | 11.3 | 16.1 | 0.00 | 0.00 | 0.00 | 23 | 1017.5 |
| 20260508064028 | 13 | 71 | 6.4 | 16.1 | 0.00 | 0.00 | 0.00 | 23 | 1017.6 |
| 20260508063022 | 13 | 86 | 16.1 | 24.1 | 0.00 | 0.00 | 0.00 | 22 | 1017.5 |
| 20260508062030 | 14 | 96 | 9.7 | 16.1 | 0.00 | 0.00 | 0.00 | 21 | 1017.4 |
| 20260508061042 | 14 | 94 | 8.0 | 16.1 | 0.00 | 0.00 | 0.00 | 21 | 1017.4 |
| 20260508060018 | 14 | 88 | 9.7 | 16.1 | 0.00 | 0.00 | 0.00 | 20 | 1017.4 |
| 20260508055020 | 13 | 84 | 11.3 | 20.9 | 0.00 | 0.00 | 0.00 | 21 | 1017.4 |
| 20260508054029 | 14 | 87 | 9.7 | 20.9 | 0.00 | 0.00 | 0.00 | 21 | 1017.5 |
| 20260508053022 | 14 | 120 | 9.7 | 16.1 | 0.00 | 0.00 | 0.00 | 22 | 1017.5 |
| 20260508052029 | 14 | 95 | 14.5 | 24.1 | 0.00 | 0.00 | 0.00 | 22 | 1017.4 |
| 20260508051022 | 14 | 89 | 11.3 | 16.1 | 0.00 | 0.00 | 0.00 | 23 | 1017.5 |
| 20260508050029 | 14 | 115 | 8.0 | 12.9 | 0.00 | 0.00 | 0.00 | 22 | 1017.5 |
| 20260508045041 | 15 | 96 | 6.4 | 12.9 | 0.00 | 0.00 | 0.00 | 22 | 1017.4 |
| 20260508044030 | 15 | 100 | 6.4 | 12.9 | 0.00 | 0.00 | 0.00 | 22 | 1017.4 |
| 20260508043041 | 15 | 89 | 6.4 | 12.9 | 0.00 | 0.00 | 0.00 | 23 | 1017.4 |
| 20260508042029 | 15 | 93 | 8.0 | 16.1 | 0.00 | 0.00 | 0.00 | 23 | 1017.4 |
| 20260508041100 | 15 | 88 | 9.7 | 16.1 | 0.00 | 0.00 | 0.00 | 23 | 1017.4 |
| 20260508040049 | 16 | 112 | 6.4 | 12.9 | 0.00 | 0.00 | 0.00 | 22 | 1017.4 |
| 20260508035022 | 16 | 116 | 4.8 | 12.9 | 0.00 | 0.00 | 0.00 | 21 | 1017.3 |
| 20260508034028 | 16 | 114 | 1.6 | 4.8 | 0.00 | 0.00 | 0.00 | 22 | 1017.0 |
| 20260508033022 | 16 | 105 | 1.6 | 8.0 | 0.00 | 0.00 | 0.00 | 21 | 1016.8 |
| 20260508032030 | 17 | 90 | 3.2 | 12.9 | 0.00 | 0.00 | 0.00 | 19 | 1016.6 |
| 20260508031041 | 19 | 93 | 0.0 | 4.8 | 0.00 | 0.00 | 0.00 | 15 | 1016.5 |
| 20260508030030 | 18 | 41 | 1.6 | 12.9 | 0.00 | 0.00 | 0.00 | 16 | 1016.4 |
| 20260508025020 | 18 | 131 | 1.6 | 8.0 | 0.00 | 0.00 | 0.00 | 19 | 1016.3 |
| 20260508024029 | 20 | 76 | 3.2 | 8.0 | 0.00 | 0.00 | 0.00 | 17 | 1016.2 |
| 20260508023022 | 20 | 146 | 1.6 | 8.0 | 0.00 | 0.00 | 0.00 | 16 | 1016.1 |
| 20260508022029 | 20 | 174 | 1.6 | 8.0 | 0.00 | 0.00 | 0.00 | 15 | 1015.9 |
| 20260508021021 | 20 | 167 | 4.8 | 12.9 | 0.00 | 0.00 | 0.00 | 15 | 1015.8 |
| 20260508020031 | 21 | 168 | 4.8 | 16.1 | 0.00 | 0.00 | 0.00 | 15 | 1015.7 |
| 20260508015021 | 21 | 185 | 8.0 | 16.1 | 0.00 | 0.00 | 0.00 | 15 | 1015.6 |
| 20260508014050 | 22 | 171 | 11.3 | 20.9 | 0.00 | 0.00 | 0.00 | 14 | 1015.5 |
| 20260508013020 | 22 | 173 | 11.3 | 24.1 | 0.00 | 0.00 | 0.00 | 13 | 1015.4 |
| 20260508012029 | 22 | 183 | 12.9 | 24.1 | 0.00 | 0.00 | 0.00 | 13 | 1015.3 |
| 20260508011022 | 22 | 185 | 9.7 | 24.1 | 0.00 | 0.00 | 0.00 | 13 | 1015.2 |
| 20260508010109 | 23 | 189 | 8.0 | 20.9 | 0.00 | 0.00 | 0.00 | 13 | 1015.2 |
| 20260508005022 | 23 | 163 | 9.7 | 24.1 | 0.00 | 0.00 | 0.00 | 12 | 1015.2 |
| 20260508004029 | 23 | 187 | 12.9 | 32.2 | 0.00 | 0.00 | 0.00 | 12 | 1015.2 |
| 20260508003021 | 23 | 200 | 6.4 | 29.0 | 0.00 | 0.00 | 0.00 | 12 | 1015.3 |
| 20260508002030 | 23 | 209 | 6.4 | 16.1 | 0.00 | 0.00 | 0.00 | 11 | 1015.2 |
| 20260508001021 | 23 | 180 | 9.7 | 29.0 | 0.00 | 0.00 | 0.00 | 12 | 1015.3 |
| 20260508000030 | 23 | 198 | 8.0 | 20.9 | 0.00 | 0.00 | 0.00 | 11 | 1015.3 |
| 20260507235020 | 24 | 198 | 11.3 | 24.1 | 0.00 | 0.00 | 0.00 | 11 | 1015.4 |
| 20260507234029 | 23 | 188 | 9.7 | 32.2 | 0.00 | 0.00 | 0.00 | 11 | 1015.4 |
| 20260507233022 | 23 | 191 | 11.3 | 20.9 | 0.00 | 0.00 | 0.00 | 11 | 1015.5 |
| 20260507232029 | 23 | 236 | 12.9 | 40.2 | 0.00 | 0.00 | 0.00 | 11 | 1015.6 |
| 20260507231042 | 23 | 355 | 3.2 | 12.9 | 0.00 | 0.00 | 0.00 | 11 | 1015.7 |
| 20260507230050 | 23 | 195 | 14.5 | 32.2 | 0.00 | 0.00 | 0.00 | 12 | 1015.9 |
| 20260507225021 | 23 | 132 | 8.0 | 20.9 | 0.00 | 0.00 | 0.00 | 11 | 1016.0 |
| 20260507224030 | 23 | 179 | 6.4 | 16.1 | 0.00 | 0.00 | 0.00 | 12 | 1016.1 |
| 20260507223023 | 23 | 323 | 3.2 | 16.1 | 0.00 | 0.00 | 0.00 | 12 | 1016.2 |
| 20260507222030 | 22 | 177 | 9.7 | 29.0 | 0.00 | 0.00 | 0.00 | 13 | 1016.4 |
| 20260507221042 | 23 | 191 | 11.3 | 29.0 | 0.00 | 0.00 | 0.00 | 13 | 1016.5 |
| 20260507220029 | 22 | 150 | 9.7 | 24.1 | 0.00 | 0.00 | 0.00 | 13 | 1016.7 |
| 20260507215022 | 23 | 173 | 3.2 | 16.1 | 0.00 | 0.00 | 0.00 | 13 | 1017.0 |
| 20260507214030 | 22 | 198 | 12.9 | 29.0 | 0.00 | 0.00 | 0.00 | 14 | 1017.1 |
| 20260507213022 | 23 | 208 | 6.4 | 20.9 | 0.00 | 0.00 | 0.00 | 14 | 1017.4 |
| 20260507212030 | 22 | 133 | 6.4 | 20.9 | 0.00 | 0.00 | 0.00 | 15 | 1017.6 |
| 20260507211021 | 21 | 167 | 6.4 | 16.1 | 0.00 | 0.00 | 0.00 | 16 | 1017.8 |
| 20260507210030 | 22 | 216 | 8.0 | 20.9 | 0.00 | 0.00 | 0.00 | 16 | 1018.0 |
| 20260507205022 | 21 | 170 | 9.7 | 24.1 | 0.00 | 0.00 | 0.00 | 17 | 1018.2 |
| 20260507204029 | 20 | 177 | 9.7 | 16.1 | 0.00 | 0.00 | 0.00 | 17 | 1018.3 |
| 20260507203022 | 21 | 193 | 14.5 | 37.0 | 0.00 | 0.00 | 0.00 | 17 | 1018.5 |
| 20260507202030 | 22 | 175 | 8.0 | 20.9 | 0.00 | 0.00 | 0.00 | 17 | 1018.7 |
| 20260507201021 | 21 | 252 | 8.0 | 20.9 | 0.00 | 0.00 | 0.00 | 17 | 1018.8 |
| 20260507200050 | 20 | 68 | 6.4 | 16.1 | 0.00 | 0.00 | 0.00 | 18 | 1018.9 |
| 20260507195043 | 21 | 270 | 9.7 | 32.2 | 0.00 | 0.00 | 0.00 | 17 | 1019.1 |
| 20260507194050 | 20 | 180 | 4.8 | 12.9 | 0.00 | 0.00 | 0.00 | 18 | 1019.3 |
| 20260507193022 | 20 | 218 | 8.0 | 20.9 | 0.00 | 0.00 | 0.00 | 18 | 1019.4 |
| 20260507192029 | 18 | 23 | 9.7 | 20.9 | 0.00 | 0.00 | 0.00 | 19 | 1019.6 |
| 20260507191038 | 19 | 279 | 9.7 | 29.0 | 0.00 | 0.00 | 0.00 | 19 | 1019.9 |
| 20260507190030 | 19 | 304 | 9.7 | 24.1 | 0.00 | 0.00 | 0.00 | 19 | 1019.9 |
| 20260507185037 | 18 | 266 | 8.0 | 16.1 | 0.00 | 0.00 | 0.00 | 21 | 1020.2 |
| 20260507184051 | 18 | 211 | 9.7 | 24.1 | 0.00 | 0.00 | 0.00 | 22 | 1020.4 |
| 20260507183041 | 18 | 280 | 11.3 | 24.1 | 0.00 | 0.00 | 0.00 | 23 | 1020.6 |
| 20260507182030 | 18 | 50 | 9.7 | 32.2 | 0.00 | 0.00 | 0.00 | 23 | 1020.7 |
| 20260507181023 | 17 | 334 | 11.3 | 32.2 | 0.00 | 0.00 | 0.00 | 24 | 1020.9 |
| 20260507180029 | 17 | 356 | 6.4 | 24.1 | 0.00 | 0.00 | 0.00 | 24 | 1021.0 |
| 20260507175022 | 16 | 317 | 12.9 | 29.0 | 0.00 | 0.00 | 0.00 | 25 | 1021.2 |
| 20260507174109 | 16 | 278 | 12.9 | 29.0 | 0.00 | 0.00 | 0.00 | 25 | 1021.3 |
| 20260507173022 | 16 | 331 | 14.5 | 32.2 | 0.00 | 0.00 | 0.00 | 26 | 1021.4 |
| 20260507172051 | 16 | 354 | 11.3 | 24.1 | 0.00 | 0.00 | 0.00 | 27 | 1021.5 |
| 20260507171021 | 15 | 315 | 9.7 | 24.1 | 0.00 | 0.00 | 0.00 | 30 | 1021.7 |
| 20260507170030 | 15 | 316 | 12.9 | 32.2 | 0.00 | 0.00 | 0.00 | 33 | 1021.8 |
| 20260507165023 | 15 | 330 | 12.9 | 29.0 | 0.00 | 0.00 | 0.00 | 36 | 1021.8 |
| 20260507164030 | 14 | 338 | 9.7 | 20.9 | 0.00 | 0.00 | 0.00 | 37 | 1021.9 |
| 20260507163023 | 13 | 317 | 11.3 | 29.0 | 0.00 | 0.00 | 0.00 | 39 | 1022.0 |
| 20260507162029 | 13 | 333 | 11.3 | 20.9 | 0.00 | 0.00 | 0.00 | 41 | 1022.2 |
| 20260507161022 | 13 | 42 | 6.4 | 20.9 | 0.00 | 0.00 | 0.00 | 38 | 1022.2 |
| 20260507160031 | 12 | 326 | 9.7 | 20.9 | 0.00 | 0.00 | 0.00 | 40 | 1022.2 |
| 20260507155021 | 11 | 348 | 11.3 | 24.1 | 0.00 | 0.00 | 0.00 | 44 | 1022.3 |
| 20260507154030 | 11 | 261 | 8.0 | 20.9 | 0.00 | 0.00 | 0.00 | 45 | 1022.4 |
| 20260507153023 | 10 | 21 | 6.4 | 12.9 | 0.00 | 0.00 | 0.00 | 49 | 1022.5 |
| 20260507152030 | 10 | 356 | 11.3 | 16.1 | 0.00 | 0.00 | 0.00 | 52 | 1022.6 |
| 20260507151022 | 9 | 343 | 9.7 | 20.9 | 0.00 | 0.00 | 0.00 | 55 | 1022.6 |
| 20260507150029 | 8 | 352 | 6.4 | 16.1 | 0.00 | 0.00 | 0.00 | 57 | 1022.7 |
| 20260507145022 | 8 | 10 | 11.3 | 24.1 | 0.00 | 0.00 | 0.00 | 61 | 1022.8 |
| 20260507144051 | 8 | 40 | 9.7 | 24.1 | 0.00 | 0.00 | 0.00 | 62 | 1022.8 |
| 20260507143021 | 7 | 359 | 14.5 | 29.0 | 0.00 | 0.00 | 0.00 | 65 | 1022.8 |
| 20260507142051 | 6 | 337 | 17.7 | 32.2 | 0.00 | 0.00 | 0.00 | 67 | 1022.8 |
| 20260507141023 | 6 | 358 | 16.1 | 32.2 | 0.00 | 0.00 | 0.00 | 68 | 1022.8 |
| 20260507140030 | 6 | 6 | 12.9 | 37.0 | 0.00 | 0.00 | 0.00 | 69 | 1022.9 |
| 20260507134029 | 5 | 350 | 14.5 | 24.1 | 0.00 | 0.00 | 0.00 | 71 | 1022.7 |
| 20260507133042 | 5 | 30 | 11.3 | 32.2 | 0.00 | 0.00 | 0.00 | 73 | 1022.6 |
| 20260507132031 | 4 | 31 | 8.0 | 20.9 | 0.00 | 0.00 | 0.00 | 74 | 1022.6 |
| 20260507131022 | 3 | 33 | 8.0 | 20.9 | 0.00 | 0.00 | 0.00 | 76 | 1022.5 |
| 20260507130030 | 3 | 0 | 11.3 | 20.9 | 0.00 | 0.00 | 0.00 | 78 | 1022.5 |
| 20260507125021 | 2 | 21 | 8.0 | 29.0 | 0.00 | 0.00 | 0.00 | 78 | 1022.4 |
| 20260507124050 | 2 | 78 | 6.4 | 16.1 | 0.00 | 0.00 | 0.00 | 76 | 1022.5 |
| 20260507123023 | 2 | 11 | 14.5 | 32.2 | 0.00 | 0.00 | 0.00 | 73 | 1022.3 |
| 20260507122030 | 2 | 44 | 6.4 | 20.9 | 0.00 | 0.00 | 0.00 | 71 | 1022.2 |
| 20260507121023 | 2 | 31 | 9.7 | 24.1 | 0.00 | 0.00 | 0.00 | 73 | 1022.1 |
| 20260507120030 | 3 | 29 | 9.7 | 20.9 | 0.00 | 0.00 | 0.00 | 73 | 1022.1 |
| 20260507115042 | 3 | 25 | 4.8 | 20.9 | 0.00 | 0.00 | 0.00 | 71 | 1022.2 |
| 20260507114029 | 3 | 8 | 11.3 | 20.9 | 0.00 | 0.00 | 0.00 | 69 | 1022.1 |
| 20260507113118 | 3 | 33 | 9.7 | 20.9 | 0.00 | 0.00 | 0.00 | 66 | 1022.2 |
| 20260507112031 | 3 | 355 | 3.2 | 8.0 | 0.00 | 0.00 | 0.00 | 67 | 1022.2 |
| 20260507111058 | 3 | 93 | 1.6 | 4.8 | 0.00 | 0.00 | 0.00 | 67 | 1022.2 |
| 20260507110031 | 3 | 103 | 1.6 | 4.8 | 0.00 | 0.00 | 0.00 | 67 | 1022.1 |
| 20260507105022 | 3 | 60 | 4.8 | 12.9 | 0.00 | 0.00 | 0.00 | 65 | 1022.1 |
| 20260507104030 | 3 | 41 | 4.8 | 8.0 | 0.00 | 0.00 | 0.00 | 66 | 1022.2 |
| 20260507103021 | 3 | 27 | 8.0 | 16.1 | 0.00 | 0.00 | 0.00 | 67 | 1022.2 |
| 20260507102031 | 4 | 23 | 4.8 | 12.9 | 0.00 | 0.00 | 0.00 | 67 | 1022.1 |
| 20260507101023 | 4 | 25 | 1.6 | 8.0 | 0.00 | 0.00 | 0.00 | 67 | 1022.1 |
| 20260507100030 | 4 | 42 | 6.4 | 12.9 | 0.00 | 0.00 | 0.00 | 66 | 1022.0 |
| 20260507095043 | 5 | 341 | 9.7 | 20.9 | 0.00 | 0.00 | 0.00 | 63 | 1022.0 |
| 20260507094030 | 5 | 51 | 4.8 | 12.9 | 0.00 | 0.00 | 0.00 | 59 | 1022.0 |
| 20260507093022 | 5 | 12 | 4.8 | 12.9 | 0.00 | 0.00 | 0.00 | 55 | 1021.9 |
| 20260507092029 | 5 | 97 | 1.6 | 8.0 | 0.00 | 0.00 | 0.00 | 53 | 1022.0 |
| 20260507091022 | 6 | 95 | 3.2 | 8.0 | 0.00 | 0.00 | 0.00 | 51 | 1021.9 |
| 20260507090031 | 7 | 35 | 8.0 | 20.9 | 0.00 | 0.00 | 0.00 | 47 | 1022.0 |